[[{"header":{"parameterUnit":"m.s-1","parameterCategory":1,"la1":30.2991,"la2":30.254,"lo1":-89.0895,"lo2":-89.0444,"dy":0.0017,"dx":0.0017,"nx":28,"ny":28,"refTime":"2024-02-17T03:00:00:Z","depth":0,"parameterNumber":2,"parameterNumberName":"U-component_of_WINDS"},"data":[0,0,0,0,0,0,0,0,0,0,0,0,0,0,0,0,0,0,0,0,0,0,0,0,0,0,0,0,0,0,0,0,0,0,0,0,0,0,0,0,0,0,0,0,0,0,0,0,0,0,0,0,0,0,0,0,0,0,-1.2722,-1.2723,0,-1.2798,-1.2799,-1.2799,-1.2782,-1.278,-1.2779,-1.2777,-1.2854,-1.2858,-1.2861,0,0,0,0,0,0,0,0,0,0,0,0,0,-1.2559,-1.2562,-1.2722,-1.2723,-1.2724,-1.2798,-1.2799,-1.28,-1.2782,-1.278,-1.2778,-1.2777,-1.2853,-1.2857,-1.2861,0,0,0,0,0,0,0,0,0,0,0,0,0,-1.2632,-1.2563,-1.2721,-1.2724,-1.2725,-1.2797,-1.2799,-1.28,-1.2782,-1.278,-1.2778,-1.2776,-1.2852,-1.2857,-1.2862,-1.2937,0,0,-1.2877,-1.288,0,0,0,0,0,0,0,0,-1.2628,-1.2638,-1.2722,-1.2724,-1.2725,-1.2778,-1.277,-1.2846,-1.2783,-1.276,-1.2777,-1.2775,-1.2831,-1.2837,-1.2856,-1.2941,-1.2944,-1.2878,-1.2881,-1.2883,-1.2885,0,0,0,0,0,0,0,-1.2623,-1.2635,-1.2752,-1.2724,-1.2725,-1.272,-1.2728,-1.2784,-1.2807,-1.2762,-1.2761,-1.277,-1.2831,-1.2851,-1.2858,-1.2945,-1.2878,-1.2882,-1.2885,-1.2887,-1.3094,-1.3096,0,0,0,0,0,0,-1.2617,-1.263,-1.2749,-1.2754,-1.267,-1.2725,-1.2734,-1.2763,-1.2806,-1.2811,-1.2772,-1.2769,-1.2844,-1.2852,-1.2861,-1.2952,-1.2883,-1.2888,-1.2891,-1.3091,-1.3094,-1.3097,0,0,0,0,0,0,-1.2614,-1.2628,-1.2746,-1.2692,-1.2707,-1.273,-1.2763,-1.2766,-1.2786,-1.2814,-1.2817,-1.2789,-1.2842,-1.2853,-1.2918,-1.2954,-1.289,-1.2895,-1.3089,-1.3092,-1.3096,-1.3134,0,0,0,0,0,0,-1.2609,-1.2627,-1.2656,-1.2693,-1.271,-1.2803,-1.2765,-1.2769,-1.2795,-1.2792,-1.2831,-1.2835,-1.2842,-1.291,-1.2923,-1.296,-1.2899,-1.3085,-1.309,-1.3095,-1.313,-1.3139,-1.3146,0,0,0,0,0,-1.2603,-1.2664,-1.2658,-1.2672,-1.2747,-1.2805,-1.2815,-1.2822,-1.2798,-1.2828,-1.2845,-1.2834,-1.2948,-1.2917,-1.2931,-1.297,-1.3083,-1.3089,-1.3094,-1.3126,-1.3137,-1.3146,0,0,0,0,0,0,-1.2631,-1.2669,-1.2662,-1.2737,-1.2768,-1.2802,-1.284,-1.2833,-1.2871,-1.2867,-1.2873,-1.2882,-1.2948,-1.2965,-1.2931,-1.3045,-1.3012,-1.302,-1.3031,-1.3042,-1.305,-1.3045,-1.2903,0,0,0,0,0,-1.2645,-1.269,-1.272,-1.2783,-1.2799,-1.2817,-1.2842,-1.2845,-1.2877,-1.289,-1.2912,-1.2944,-1.2987,-1.3015,-1.3056,-1.3131,-1.3139,-1.3165,-1.3173,-1.318,-1.3187,-1.3228,-1.324,-1.3115,-1.3115,-1.3115,0,0,-1.2676,-1.2702,-1.273,-1.2789,-1.2814,-1.2859,-1.2828,-1.2878,-1.2912,-1.2898,-1.2961,-1.2977,-1.3013,-1.3083,-1.3115,-1.31,-1.3223,-1.3186,-1.3192,-1.3196,-1.3235,-1.3247,-1.3257,-1.3119,-1.3118,-1.3117,0,0,-1.2756,-1.278,-1.2835,-1.286,-1.2898,-1.2909,-1.2922,-1.2957,-1.2968,-1.3031,-1.3021,-1.3061,-1.3134,-1.316,-1.3183,-1.3271,-1.3262,-1.3283,-1.3327,-1.3367,-1.3377,-1.3386,-1.3417,-1.3429,-1.3291,-1.3291,-1.3291,0,-1.279,-1.2859,-1.2864,-1.2915,-1.2941,-1.293,-1.2985,-1.3009,-1.3058,-1.3076,-1.3057,-1.3149,-1.3172,-1.3248,-1.327,-1.3288,-1.3303,-1.328,-1.3375,-1.3384,-1.3392,-1.3423,-1.3434,-1.3293,-1.3293,-1.3293,-1.3293,0,-1.2899,-1.2947,-1.2986,-1.3034,-1.3064,-1.3117,-1.3129,-1.3159,-1.3158,-1.3171,-1.3234,-1.3261,-1.3307,-1.3325,-1.3325,-1.3401,-1.339,-1.3373,-1.3341,-1.3406,-1.3435,-1.3447,-1.3297,-1.3296,-1.3295,-1.3295,0,0,-1.3001,-1.3049,-1.3064,-1.3085,-1.3125,-1.3162,-1.3213,-1.3258,-1.3284,-1.3317,-1.336,-1.3422,-1.3406,-1.3432,-1.3434,-1.3469,-1.3537,-1.3447,-1.3448,-1.3464,-1.3623,-1.3636,-1.365,-1.353,-1.3532,-1.3534,-1.362,0,-1.3085,-1.3177,-1.3182,-1.3265,-1.3309,-1.3298,-1.3343,-1.3372,-1.3384,-1.3423,-1.3436,-1.3481,-1.3456,-1.3472,-1.3505,-1.3522,-1.3569,-1.3515,-1.3571,-1.3573,-1.3564,-1.3665,-1.3679,-1.3759,-1.3631,-1.3633,-1.3634,0,-1.3196,-1.3233,-1.3321,-1.3354,-1.3372,-1.3413,-1.3454,-1.3491,-1.3523,-1.3529,-1.3557,-1.3554,-1.3606,-1.357,-1.3642,-1.3605,-1.3627,-1.3638,-1.3642,-1.3648,-1.3609,-1.3675,-1.3785,-1.3797,-1.3652,-1.3651,-1.3649,0,-1.3263,-1.3334,-1.3396,-1.3414,-1.3453,-1.3482,-1.35,-1.3529,-1.3556,-1.3591,-1.3608,-1.3649,-1.3672,-1.3703,-1.3711,-1.3684,-1.3782,-1.3747,-1.3789,-1.3789,-1.3812,-1.3811,-1.3928,-1.3825,-1.3824,-1.3824,-1.3824,0,-1.3358,-1.3412,-1.3426,-1.3464,-1.3524,-1.3529,-1.3588,-1.3603,-1.3629,-1.367,-1.3662,-1.3699,-1.3706,-1.3745,-1.3751,-1.381,-1.3819,-1.3826,-1.3827,-1.3828,-1.3827,-1.3844,-1.3839,-1.3827,-1.3827,-1.3826,-1.3825,0,-1.3443,-1.3455,-1.3521,-1.3553,-1.3562,-1.3604,-1.3631,-1.3667,-1.3678,-1.3729,-1.3741,-1.3758,-1.3804,-1.3814,-1.3867,-1.3871,-1.3941,-1.3936,-1.393,-1.393,-1.3972,-1.3969,-1.4106,-1.4124,-1.4007,-1.4008,-1.4009,0,-1.3503,-1.3545,-1.358,-1.3607,-1.3626,-1.3669,-1.3696,-1.3701,-1.3729,-1.3768,-1.3799,-1.3843,-1.388,-1.3952,-1.3969,-1.401,-1.4007,-1.4052,-1.4013,-1.4012,-1.4008,-1.4006,-1.4011,-1.406,-1.4061,-1.4062,-1.4063,0,-1.361,-1.3613,-1.3652,-1.3694,-1.3726,-1.3759,-1.379,-1.3811,-1.3821,-1.3853,-1.3899,-1.3927,-1.3981,-1.4026,-1.4066,-1.4083,-1.4075,-1.4075,-1.4087,-1.4088,-1.4084,-1.4088,-1.3952,-1.4072,-1.4071,-1.407,-1.407,-1.407,-1.3685,-1.3721,-1.3752,-1.3796,-1.3819,-1.3848,-1.3884,-1.3899,-1.3938,-1.3983,-1.3983,-1.4034,-1.4063,-1.4117,-1.4136,-1.4175,-1.4161,-1.4178,-1.4183,-1.4188,-1.4192,-1.4076,-1.4182,-1.4182,-1.4182,-1.4182,-1.4181,0,-1.3792,-1.3811,-1.3851,-1.3894,-1.3929,-1.3917,-1.395,-1.3979,-1.4024,-1.4052,-1.4088,-1.414,-1.4183,-1.4202,-1.4244,-1.4271,-1.4269,-1.4282,-1.4281,-1.4285,-1.4202,-1.4188,-1.4284,-1.4284,-1.4284,-1.4284,-1.4284,-1.4284,-1.3852,-1.3912,-1.3919,-1.3991,-1.4009,-1.4059,-1.4079,-1.4105,-1.4127,-1.4187,-1.4222,-1.4235,-1.4259,-1.4302,-1.434,-1.4344,-1.4361,-1.4377,-1.4379,-1.4301,-1.4291,-1.4281,-1.4268,-1.438,-1.438,-1.446,-1.446,-1.4461]},{"header":{"parameterUnit":"m.s-1","parameterCategory":1,"la1":30.2991,"la2":30.254,"lo1":-89.0895,"lo2":-89.0444,"dy":0.0017,"dx":0.0017,"nx":28,"ny":28,"refTime":"2024-02-17T03:00:00:Z","depth":0,"parameterNumber":3,"parameterNumberName":"V-component_of_WINDS"},"data":[0,0,0,0,0,0,0,0,0,0,0,0,0,0,0,0,0,0,0,0,0,0,0,0,0,0,0,0,0,0,0,0,0,0,0,0,0,0,0,0,0,0,0,0,0,0,0,0,0,0,0,0,0,0,0,0,0,0,-6.3768,-6.377,0,-6.3902,-6.3904,-6.3905,-6.3872,-6.3869,-6.3867,-6.3864,-6.3995,-6.4001,-6.4007,0,0,0,0,0,0,0,0,0,0,0,0,0,-6.3475,-6.3481,-6.3768,-6.377,-6.3771,-6.3902,-6.3904,-6.3906,-6.3872,-6.3869,-6.3866,-6.3863,-6.3993,-6.4,-6.4007,0,0,0,0,0,0,0,0,0,0,0,0,0,-6.3605,-6.3483,-6.3768,-6.3771,-6.3772,-6.3902,-6.3904,-6.3906,-6.3873,-6.3869,-6.3865,-6.3861,-6.3991,-6.3999,-6.4008,-6.4141,0,0,-6.4035,-6.4039,0,0,0,0,0,0,0,0,-6.3598,-6.3616,-6.3768,-6.3771,-6.3773,-6.3867,-6.3849,-6.3985,-6.3874,-6.3834,-6.3864,-6.3859,-6.3955,-6.3966,-6.4,-6.4147,-6.4153,-6.4036,-6.4041,-6.4045,-6.4048,0,0,0,0,0,0,0,-6.3589,-6.361,-6.3821,-6.3771,-6.3773,-6.3763,-6.3777,-6.3874,-6.3915,-6.3838,-6.3835,-6.3852,-6.3955,-6.3992,-6.4003,-6.4155,-6.4036,-6.4044,-6.4049,-6.4053,-6.4416,-6.442,0,0,0,0,0,0,-6.3579,-6.3603,-6.3817,-6.3825,-6.3674,-6.3771,-6.3787,-6.384,-6.3914,-6.3921,-6.3855,-6.385,-6.3978,-6.3993,-6.4007,-6.4167,-6.4045,-6.4053,-6.4059,-6.4412,-6.4417,-6.4422,0,0,0,0,0,0,-6.3573,-6.3599,-6.3811,-6.3713,-6.374,-6.378,-6.384,-6.3845,-6.3881,-6.3927,-6.3933,-6.3886,-6.3976,-6.3995,-6.4108,-6.4171,-6.4057,-6.4065,-6.4407,-6.4413,-6.4419,-6.4489,0,0,0,0,0,0,-6.3565,-6.3597,-6.3649,-6.3715,-6.3745,-6.3913,-6.3844,-6.385,-6.3898,-6.3892,-6.3957,-6.3964,-6.3974,-6.4095,-6.4117,-6.4182,-6.4072,-6.4401,-6.441,-6.4417,-6.4481,-6.4497,-6.4511,0,0,0,0,0,-6.3554,-6.3662,-6.3652,-6.3678,-6.3812,-6.3916,-6.3933,-6.3945,-6.3903,-6.3955,-6.3984,-6.3962,-6.4161,-6.4107,-6.4131,-6.42,-6.4397,-6.4407,-6.4417,-6.4475,-6.4494,-6.451,0,0,0,0,0,0,-6.3601,-6.3671,-6.3661,-6.3794,-6.385,-6.391,-6.3977,-6.3965,-6.4032,-6.4024,-6.4032,-6.4047,-6.4163,-6.4192,-6.4131,-6.4331,-6.4273,-6.4288,-6.4308,-6.4327,-6.4341,-6.4332,-6.408,0,0,0,0,0,-6.3627,-6.3708,-6.3764,-6.3876,-6.3904,-6.3936,-6.3982,-6.3986,-6.4043,-6.4066,-6.4103,-6.4158,-6.4232,-6.4281,-6.4352,-6.4485,-6.4498,-6.4544,-6.4558,-6.457,-6.4583,-6.4654,-6.4674,-6.4454,-6.4454,-6.4454,0,0,-6.3681,-6.373,-6.378,-6.3886,-6.393,-6.4011,-6.3956,-6.4044,-6.4104,-6.4078,-6.4188,-6.4218,-6.4279,-6.4402,-6.4458,-6.443,-6.4647,-6.4583,-6.4592,-6.4598,-6.4666,-6.4687,-6.4705,-6.446,-6.4459,-6.4458,0,0,-6.3822,-6.3867,-6.3965,-6.401,-6.4078,-6.4098,-6.4121,-6.4185,-6.4204,-6.4315,-6.4297,-6.4366,-6.4495,-6.4539,-6.4578,-6.4734,-6.4716,-6.4757,-6.4834,-6.4903,-6.492,-6.4936,-6.499,-6.501,-6.477,-6.477,-6.477,0,-6.388,-6.4004,-6.4016,-6.4107,-6.4153,-6.4135,-6.4233,-6.4276,-6.4362,-6.4394,-6.4361,-6.4522,-6.4562,-6.4695,-6.4733,-6.4766,-6.4791,-6.475,-6.4917,-6.4933,-6.4947,-6.4999,-6.502,-6.4774,-6.4774,-6.4773,-6.4773,0,-6.4072,-6.4158,-6.4229,-6.4315,-6.4369,-6.4463,-6.4487,-6.454,-6.4538,-6.4561,-6.4673,-6.472,-6.48,-6.4832,-6.4831,-6.4965,-6.4945,-6.4915,-6.4856,-6.4973,-6.5022,-6.5042,-6.4781,-6.4779,-6.4778,-6.4777,0,0,-6.4246,-6.4338,-6.4364,-6.4402,-6.4475,-6.4541,-6.4632,-6.4713,-6.4757,-6.4817,-6.4893,-6.5002,-6.4975,-6.5019,-6.5022,-6.5083,-6.5202,-6.5045,-6.5047,-6.5072,-6.5351,-6.5373,-6.5396,-6.5191,-6.5195,-6.5198,-6.5346,0,-6.4393,-6.4557,-6.457,-6.4717,-6.4796,-6.4779,-6.4859,-6.491,-6.4934,-6.5002,-6.5026,-6.5103,-6.5062,-6.5089,-6.5148,-6.5176,-6.5258,-6.5165,-6.5259,-6.5263,-6.5245,-6.5422,-6.5446,-6.5584,-6.5365,-6.5368,-6.5371,0,-6.4586,-6.4654,-6.481,-6.4871,-6.4904,-6.4976,-6.505,-6.5116,-6.5173,-6.5186,-6.5236,-6.523,-6.5322,-6.526,-6.5385,-6.5321,-6.536,-6.5379,-6.5384,-6.5393,-6.5324,-6.5435,-6.5628,-6.5648,-6.5401,-6.5399,-6.5397,0,-6.4697,-6.4827,-6.4936,-6.497,-6.5044,-6.5095,-6.5127,-6.5181,-6.5228,-6.5292,-6.5322,-6.5395,-6.5435,-6.549,-6.5504,-6.5457,-6.5628,-6.5567,-6.5639,-6.5639,-6.5676,-6.5673,-6.5877,-6.5702,-6.5701,-6.5701,-6.57,0,-6.4859,-6.4955,-6.4987,-6.5055,-6.516,-6.5173,-6.5276,-6.5305,-6.5353,-6.5424,-6.5413,-6.548,-6.5494,-6.5562,-6.5573,-6.5674,-6.5692,-6.5703,-6.5705,-6.5704,-6.5703,-6.5729,-6.572,-6.5706,-6.5705,-6.5704,-6.5703,0,-6.5001,-6.5027,-6.5145,-6.5206,-6.5224,-6.5299,-6.5349,-6.5413,-6.5434,-6.5524,-6.5546,-6.5579,-6.5659,-6.5678,-6.5772,-6.5779,-6.5899,-6.5891,-6.588,-6.588,-6.595,-6.5943,-6.6178,-6.6209,-6.6014,-6.6016,-6.6017,0,-6.5103,-6.5177,-6.5246,-6.5294,-6.5329,-6.5406,-6.5455,-6.5469,-6.5519,-6.559,-6.5644,-6.5723,-6.5787,-6.5915,-6.5945,-6.6017,-6.6011,-6.6088,-6.6021,-6.6018,-6.6011,-6.6007,-6.6013,-6.6101,-6.6103,-6.6105,-6.6106,0,-6.5281,-6.529,-6.5362,-6.5438,-6.5496,-6.5556,-6.5613,-6.5652,-6.5674,-6.5731,-6.5813,-6.5863,-6.596,-6.6038,-6.611,-6.614,-6.6126,-6.6127,-6.6147,-6.6147,-6.6137,-6.6143,-6.5915,-6.6121,-6.612,-6.6119,-6.6118,-6.6117,-6.5406,-6.547,-6.5529,-6.5608,-6.5653,-6.5706,-6.5769,-6.5799,-6.5869,-6.5951,-6.5954,-6.6043,-6.6097,-6.6192,-6.6227,-6.6296,-6.6271,-6.6301,-6.6308,-6.6315,-6.6322,-6.6127,-6.6309,-6.6308,-6.6308,-6.6307,-6.6307,0,-6.5582,-6.5619,-6.5693,-6.5774,-6.5836,-6.5819,-6.5881,-6.5934,-6.6013,-6.6066,-6.6129,-6.6223,-6.6298,-6.6335,-6.6409,-6.6456,-6.6451,-6.6475,-6.6471,-6.6478,-6.6339,-6.6314,-6.6477,-6.6477,-6.6477,-6.6477,-6.6477,-6.6477,-6.5682,-6.579,-6.5805,-6.5934,-6.5969,-6.6059,-6.6095,-6.6144,-6.6185,-6.6292,-6.6355,-6.6379,-6.6424,-6.6501,-6.6568,-6.6577,-6.6604,-6.6631,-6.6636,-6.6506,-6.6488,-6.6472,-6.6448,-6.6637,-6.6637,-6.677,-6.6771,-6.6772]}]]